Meteo pe oră la Craiova

Astăzi, 17 Aprilie, Sâmbătă

Timp Temperatura Precipitaţii Vânt Presiune Umiditate
00:00 +4°C° 0 mm 1 m/s 754 mmHg 68%
01:00 +4°C° 0 mm 1 m/s 754 mmHg 70%
02:00 +4°C° 0 mm 1 m/s 754 mmHg 71%
03:00 +4°C° 0 mm 1 m/s 754 mmHg 70%
04:00 +4°C° 0 mm 1 m/s 754 mmHg 70%
05:00 +4°C° 0 mm 1 m/s 754 mmHg 69%
06:00 +5°C° 0 mm 1 m/s 754 mmHg 66%
07:00 +6°C° 0 mm 1 m/s 754 mmHg 62%
08:00 +7°C° 0 mm 1 m/s 754 mmHg 59%
09:00 +9°C° 0 mm 1 m/s 754 mmHg 55%
10:00 +10°C° 0 mm 1 m/s 753 mmHg 50%
11:00 +12°C° 0 mm 2 m/s 753 mmHg 46%
12:00 +12°C° 0 mm 2 m/s 753 mmHg 48%
13:00 +12°C° 0 mm 3 m/s 752 mmHg 50%
14:00 +12°C° 0 mm 3 m/s 752 mmHg 52%
15:00 +11°C° 0.2 mm 3 m/s 752 mmHg 59%
16:00 +11°C° 0.2 mm 3 m/s 751 mmHg 67%
17:00 +10°C° 0.2 mm 3 m/s 751 mmHg 74%
18:00 +9°C° 0.6 mm 3 m/s 751 mmHg 79%
19:00 +9°C° 0.6 mm 3 m/s 751 mmHg 84%
20:00 +8°C° 0.6 mm 3 m/s 751 mmHg 89%
21:00 +8°C° 0.7 mm 3 m/s 751 mmHg 90%
22:00 +8°C° 0.7 mm 3 m/s 751 mmHg 90%
23:00 +7°C° 0.7 mm 4 m/s 751 mmHg 91%

Mâine, 18 Aprilie, Duminică

Timp Temperatura Precipitaţii Vânt Presiune Umiditate
00:00 +7°C° 0.3 mm 4 m/s 751 mmHg 90%
01:00 +7°C° 0.3 mm 5 m/s 751 mmHg 89%
02:00 +7°C° 0.3 mm 5 m/s 751 mmHg 88%
03:00 +7°C° 0.1 mm 5 m/s 750 mmHg 86%
04:00 +6°C° 0.1 mm 5 m/s 750 mmHg 85%
05:00 +5°C° 0.1 mm 6 m/s 750 mmHg 84%
06:00 +6°C° 0.7 mm 5 m/s 750 mmHg 84%
07:00 +6°C° 0.7 mm 5 m/s 750 mmHg 85%
08:00 +6°C° 0.7 mm 5 m/s 750 mmHg 85%
09:00 +6°C° 1.4 mm 5 m/s 750 mmHg 87%
10:00 +6°C° 1.4 mm 5 m/s 751 mmHg 88%
11:00 +6°C° 1.4 mm 4 m/s 751 mmHg 89%
12:00 +6°C° 0.7 mm 4 m/s 751 mmHg 89%
13:00 +6°C° 0.7 mm 4 m/s 751 mmHg 89%
14:00 +6°C° 0.7 mm 4 m/s 751 mmHg 89%
15:00 +6°C° 0 mm 4 m/s 751 mmHg 88%
16:00 +7°C° 0 mm 3 m/s 752 mmHg 88%
17:00 +7°C° 0 mm 2 m/s 752 mmHg 87%
18:00 +7°C° 0 mm 2 m/s 752 mmHg 88%
19:00 +7°C° 0 mm 2 m/s 752 mmHg 88%
20:00 +7°C° 0 mm 2 m/s 752 mmHg 89%
21:00 +8°C° 0 mm 1 m/s 752 mmHg 89%
22:00 +8°C° 0 mm 1 m/s 752 mmHg 89%
23:00 +8°C° 0 mm 1 m/s 753 mmHg 88%

Poimâine, 19 Aprilie, Luni

Timp Temperatura Precipitaţii Vânt Presiune Umiditate
00:00 +8°C° 0 mm 1 m/s 752 mmHg 88%
01:00 +7°C° 0 mm 1 m/s 752 mmHg 89%
02:00 +7°C° 0 mm 1 m/s 751 mmHg 89%
03:00 +7°C° 0 mm 1 m/s 751 mmHg 89%
04:00 +7°C° 0 mm 1 m/s 751 mmHg 89%
05:00 +7°C° 0 mm 1 m/s 751 mmHg 89%
06:00 +8°C° 0 mm 1 m/s 751 mmHg 86%
07:00 +8°C° 0 mm 1 m/s 750 mmHg 84%
08:00 +9°C° 0 mm 1 m/s 750 mmHg 82%
09:00 +9°C° 0.1 mm 1 m/s 750 mmHg 81%
10:00 +10°C° 0.1 mm 1 m/s 750 mmHg 80%
11:00 +10°C° 0.1 mm 1 m/s 750 mmHg 79%
12:00 +11°C° 0.1 mm 1 m/s 750 mmHg 77%
13:00 +11°C° 0.1 mm 1 m/s 749 mmHg 75%
14:00 +11°C° 0.1 mm 1 m/s 749 mmHg 74%
15:00 +11°C° 0 mm 1 m/s 748 mmHg 74%
16:00 +11°C° 0 mm 1 m/s 748 mmHg 75%
17:00 +11°C° 0 mm 1 m/s 747 mmHg 76%
18:00 +11°C° 0 mm 1 m/s 747 mmHg 80%
19:00 +10°C° 0 mm 1 m/s 747 mmHg 83%
20:00 +8°C° 0 mm 2 m/s 747 mmHg 87%
21:00 +8°C° 0 mm 2 m/s 747 mmHg 88%
22:00 +8°C° 0 mm 2 m/s 747 mmHg 88%
23:00 +8°C° 0 mm 2 m/s 747 mmHg 89%

20 Aprilie, Marţi

Timp Temperatura Precipitaţii Vânt Presiune Umiditate
00:00 +8°C° 0 mm 2 m/s 746 mmHg 89%
01:00 +8°C° 0 mm 3 m/s 746 mmHg 89%
02:00 +8°C° 0 mm 3 m/s 746 mmHg 89%
03:00 +7°C° 0 mm 3 m/s 746 mmHg 89%
04:00 +5°C° 0 mm 4 m/s 746 mmHg 89%
05:00 +5°C° 0 mm 5 m/s 746 mmHg 89%
06:00 +6°C° 0 mm 5 m/s 746 mmHg 85%
07:00 +7°C° 0 mm 6 m/s 746 mmHg 81%
08:00 +8°C° 0 mm 7 m/s 746 mmHg 76%
09:00 +9°C° 0 mm 7 m/s 747 mmHg 70%
10:00 +11°C° 0 mm 8 m/s 747 mmHg 64%
11:00 +12°C° 0 mm 8 m/s 747 mmHg 58%
12:00 +12°C° 0 mm 8 m/s 747 mmHg 55%
13:00 +13°C° 0 mm 9 m/s 747 mmHg 53%
14:00 +13°C° 0 mm 9 m/s 747 mmHg 51%
15:00 +13°C° 0 mm 8 m/s 747 mmHg 54%
16:00 +12°C° 0 mm 8 m/s 747 mmHg 57%
17:00 +12°C° 0 mm 8 m/s 747 mmHg 61%
18:00 +11°C° 0 mm 7 m/s 748 mmHg 63%
19:00 +10°C° 0 mm 7 m/s 748 mmHg 65%
20:00 +9°C° 0 mm 6 m/s 748 mmHg 67%
21:00 +9°C° 0 mm 6 m/s 749 mmHg 69%
22:00 +8°C° 0 mm 6 m/s 749 mmHg 72%
23:00 +8°C° 0 mm 5 m/s 749 mmHg 74%

21 Aprilie, Miercuri

Timp Temperatura Precipitaţii Vânt Presiune Umiditate
00:00 +7°C° 0 mm 5 m/s 750 mmHg 77%
01:00 +7°C° 0 mm 5 m/s 750 mmHg 79%
02:00 +7°C° 0 mm 5 m/s 750 mmHg 82%
03:00 +6°C° 0 mm 5 m/s 750 mmHg 83%
04:00 +6°C° 0 mm 5 m/s 751 mmHg 84%
05:00 +6°C° 0 mm 4 m/s 751 mmHg 85%
06:00 +7°C° 0 mm 5 m/s 751 mmHg 80%
07:00 +8°C° 0 mm 5 m/s 751 mmHg 76%
08:00 +9°C° 0 mm 5 m/s 752 mmHg 71%
09:00 +10°C° 0 mm 5 m/s 752 mmHg 65%
10:00 +13°C° 0 mm 5 m/s 752 mmHg 59%
11:00 +14°C° 0 mm 6 m/s 752 mmHg 54%
12:00 +15°C° 0 mm 6 m/s 752 mmHg 52%
13:00 +16°C° 0 mm 7 m/s 752 mmHg 49%
14:00 +16°C° 0 mm 7 m/s 752 mmHg 47%
15:00 +16°C° 0 mm 7 m/s 752 mmHg 49%
16:00 +16°C° 0 mm 6 m/s 752 mmHg 50%
17:00 +15°C° 0 mm 6 m/s 752 mmHg 52%
18:00 +14°C° 0 mm 5 m/s 753 mmHg 58%
19:00 +12°C° 0 mm 4 m/s 753 mmHg 65%
20:00 +10°C° 0 mm 3 m/s 753 mmHg 71%
21:00 +10°C° 0 mm 3 m/s 754 mmHg 72%
22:00 +9°C° 0 mm 3 m/s 754 mmHg 74%
23:00 +8°C° 0 mm 2 m/s 754 mmHg 76%

22 Aprilie, Joi

Timp Temperatura Precipitaţii Vânt Presiune Umiditate
00:00 +8°C° 0 mm 2 m/s 754 mmHg 77%
01:00 +8°C° 0 mm 2 m/s 754 mmHg 79%
02:00 +7°C° 0 mm 2 m/s 755 mmHg 80%
03:00 +8°C° 0 mm 1 m/s 755 mmHg 81%
04:00 +8°C° 0 mm 1 m/s 755 mmHg 82%
05:00 +7°C° 0 mm 1 m/s 755 mmHg 83%
06:00 +9°C° 0 mm 1 m/s 755 mmHg 78%
07:00 +10°C° 0 mm 1 m/s 755 mmHg 72%
08:00 +12°C° 0 mm 1 m/s 756 mmHg 67%
09:00 +14°C° 0 mm 1 m/s 756 mmHg 61%
10:00 +15°C° 0 mm 2 m/s 756 mmHg 56%
11:00 +17°C° 0 mm 2 m/s 756 mmHg 50%
12:00 +18°C° 0 mm 2 m/s 755 mmHg 46%
13:00 +19°C° 0 mm 2 m/s 755 mmHg 43%
14:00 +20°C° 0 mm 3 m/s 754 mmHg 40%
15:00 +20°C° 0 mm 2 m/s 754 mmHg 40%
16:00 +20°C° 0 mm 2 m/s 754 mmHg 41%
17:00 +20°C° 0 mm 2 m/s 754 mmHg 41%
18:00 +18°C° 0 mm 2 m/s 754 mmHg 47%
19:00 +16°C° 0 mm 2 m/s 754 mmHg 53%
20:00 +15°C° 0 mm 1 m/s 754 mmHg 59%
21:00 +14°C° 0.2 mm 2 m/s 754 mmHg 65%
22:00 +13°C° 0.2 mm 2 m/s 754 mmHg 72%
23:00 +11°C° 0.2 mm 3 m/s 754 mmHg 79%
Arată mai mult

Formular de consimțământ

Meteoprog și furnizorii noștri de servicii pot stoca și accesa date personale, precum cookies, identificatori de dispozitiv sau alte tehnologii similare pe dispozitivul dumneavoastră și procesa astfel de date pentru a personaliza conținutul și reclamele, dar și pentru a oferi caracteristici de social media și pentru a analiza traficul.

  • Stocarea și/sau accesarea informațiilor pe dispozitivul dumneavoastră

    Cookies, identificatori de dispozitiv sau alte informații pot fi stocate sau accesate pe dispozitiv în scopurile indicate mai sus.

  • Reclame și conținut personalizat, evaluarea reclamelor și a conținutului, informații despre audiențe și dezvoltarea produselor

    Reclamele și conținutul pot fi personalizate pe baza unui profil. Pot fi adăugate date suplimentare pentru a personaliza mai bine reclamele și conținutul. Performanța reclamelor și conținutului poate fi măsurată. Pot fi obținute informații despre utilizatorii care au văzut reclamele și conținutul. Aceste date pot fi utilizate pentru a dezvolta sau îmbunătăți experiența utilizatorilor, sistemele și software-ul.

Dând clic pe ‘Sunt de acord’, permiteți utilizarea cookie-urilor menționate, a identificatorilor de dispozitiv, balizelor web sau altor tehnologii similare. Setările pot fi modificate din browser-ul dispozitivului dumneavoastră.

În anumite scopuri, interesele legitime pot prima asupra consimțământului. Puteți citi mai multe informații în acest sens în Politica privind Confidențialitatea Datelor și Cookie.